| time (UTC) | temp F | wind direction | speed knots | gust knots | rain 1hr in | rain 24hr in | rain mn in | humidity % | barometer mb |
| 20260504150930 | 63 | 277 | 2.6 | 4.3 | 0.00 | 0.00 | 0.00 | 62 | 1011.3 |
| 20260504150426 | 62 | 237 | 2.6 | 4.3 | 0.00 | 0.00 | 0.00 | 61 | 1011.5 |
| 20260504140853 | 60 | 211 | 2.6 | 4.3 | 0.00 | 0.00 | 0.00 | 60 | 1011.7 |
| 20260504140349 | 59 | 302 | 1.7 | 4.3 | 0.00 | 0.00 | 0.00 | 64 | 1011.6 |
| 20260504130818 | 56 | 325 | 1.7 | 2.6 | 0.00 | 0.00 | 0.00 | 64 | 1012.2 |
| 20260504130314 | 56 | 226 | 4.3 | 5.2 | 0.00 | 0.00 | 0.00 | 65 | 1012.0 |
| 20260504120237 | 52 | 235 | 4.3 | 5.2 | 0.00 | 0.00 | 0.00 | 66 | 1012.1 |
| 20260504110705 | 49 | 246 | 4.3 | 5.2 | 0.00 | 0.00 | 0.00 | 69 | 1011.9 |
| 20260504110201 | 49 | 220 | 5.2 | 7.0 | 0.00 | 0.00 | 0.00 | 69 | 1011.7 |
| 20260504100125 | 47 | 222 | 6.1 | 7.0 | 0.00 | 0.00 | 0.00 | 71 | 1012.2 |
| 20260504081518 | 47 | 220 | 4.3 | 4.3 | 0.00 | 0.00 | 0.00 | 70 | 1012.9 |
| 20260504081014 | 46 | 238 | 1.7 | 2.6 | 0.00 | 0.00 | 0.00 | 72 | 1013.3 |
| 20260504080510 | 46 | 236 | 1.7 | 2.6 | 0.00 | 0.00 | 0.00 | 73 | 1013.2 |
| 20260504050317 | 43 | 332 | 0.0 | 0.0 | 0.00 | 0.00 | 0.00 | 76 | 1014.7 |
| 20260504045814 | 43 | 332 | 0.0 | 0.0 | 0.00 | 0.00 | 0.00 | 77 | 1014.7 |
| 20260504045314 | 43 | 332 | 0.0 | 0.0 | 0.00 | 0.00 | 0.00 | 76 | 1014.6 |
| 20260504044812 | 43 | 332 | 0.0 | 0.0 | 0.00 | 0.00 | 0.00 | 74 | 1014.7 |
| 20260504044309 | 43 | 332 | 0.0 | 0.0 | 0.00 | 0.00 | 0.00 | 74 | 1014.7 |
| 20260504043806 | 44 | 332 | 0.0 | 0.0 | 0.00 | 0.00 | 0.00 | 76 | 1014.8 |
| 20260504043303 | 44 | 332 | 0.0 | 0.0 | 0.00 | 0.00 | 0.00 | 75 | 1014.9 |
| 20260504042801 | 44 | 332 | 0.9 | 1.7 | 0.00 | 0.00 | 0.00 | 75 | 1014.9 |
| 20260504042257 | 44 | 332 | 1.7 | 2.6 | 0.00 | 0.00 | 0.00 | 74 | 1014.8 |
| 20260504041753 | 44 | 332 | 0.0 | 0.0 | 0.00 | 0.00 | 0.00 | 73 | 1014.9 |
| 20260504041249 | 44 | 303 | 0.0 | 1.7 | 0.00 | 0.00 | 0.00 | 75 | 1014.7 |
| 20260504040745 | 45 | 300 | 1.7 | 1.7 | 0.00 | 0.00 | 0.00 | 71 | 1014.6 |
| 20260504040243 | 45 | 296 | 0.0 | 0.0 | 0.00 | 0.00 | 0.00 | 70 | 1014.8 |
| 20260504035739 | 45 | 297 | 0.9 | 1.7 | 0.00 | 0.00 | 0.00 | 71 | 1014.7 |
| 20260504035236 | 45 | 297 | 0.0 | 1.7 | 0.00 | 0.00 | 0.00 | 70 | 1014.6 |
| 20260504034734 | 44 | 333 | 0.0 | 0.0 | 0.00 | 0.00 | 0.00 | 69 | 1014.6 |
| 20260504034231 | 45 | 333 | 0.0 | 0.0 | 0.00 | 0.00 | 0.00 | 70 | 1014.6 |
| 20260504033729 | 45 | 333 | 0.0 | 0.0 | 0.00 | 0.00 | 0.00 | 70 | 1014.7 |
| 20260504033226 | 45 | 333 | 0.0 | 0.0 | 0.00 | 0.00 | 0.00 | 70 | 1014.5 |
| 20260504032723 | 45 | 333 | 0.0 | 0.0 | 0.00 | 0.00 | 0.00 | 70 | 1014.6 |
| 20260504032220 | 45 | 333 | 0.0 | 0.0 | 0.00 | 0.00 | 0.00 | 71 | 1014.5 |
| 20260504031716 | 45 | 333 | 0.0 | 0.0 | 0.00 | 0.00 | 0.00 | 69 | 1014.6 |
| 20260504031214 | 46 | 333 | 0.0 | 0.0 | 0.00 | 0.00 | 0.00 | 68 | 1015.0 |
| 20260504030709 | 46 | 333 | 0.0 | 0.0 | 0.00 | 0.00 | 0.00 | 66 | 1014.7 |
| 20260504030207 | 46 | 333 | 0.0 | 0.0 | 0.00 | 0.00 | 0.00 | 66 | 1014.5 |
| 20260504025703 | 46 | 333 | 0.0 | 0.0 | 0.00 | 0.00 | 0.00 | 68 | 1014.8 |
| 20260504025200 | 47 | 333 | 0.0 | 0.0 | 0.00 | 0.00 | 0.00 | 68 | 1014.9 |
| 20260504024657 | 47 | 333 | 0.0 | 0.0 | 0.00 | 0.00 | 0.00 | 67 | 1015.0 |
| 20260504024154 | 47 | 333 | 0.9 | 1.7 | 0.00 | 0.00 | 0.00 | 68 | 1015.0 |
| 20260504023650 | 47 | 333 | 0.0 | 0.0 | 0.00 | 0.00 | 0.00 | 66 | 1014.9 |
| 20260504023146 | 48 | 333 | 0.0 | 1.7 | 0.00 | 0.00 | 0.00 | 68 | 1015.0 |
| 20260504022643 | 48 | 333 | 0.9 | 1.7 | 0.00 | 0.00 | 0.00 | 63 | 1014.7 |
| 20260504022138 | 47 | 333 | 0.9 | 1.7 | 0.00 | 0.00 | 0.00 | 66 | 1014.8 |
| 20260504021637 | 47 | 333 | 0.0 | 0.0 | 0.00 | 0.00 | 0.00 | 69 | 1014.9 |
| 20260504021133 | 48 | 333 | 0.0 | 0.0 | 0.00 | 0.00 | 0.00 | 68 | 1014.8 |
| 20260504020631 | 48 | 333 | 0.0 | 0.0 | 0.00 | 0.00 | 0.00 | 67 | 1014.8 |
| 20260504020126 | 48 | 333 | 0.0 | 0.0 | 0.00 | 0.00 | 0.00 | 65 | 1015.0 |
| 20260504015623 | 48 | 333 | 0.0 | 0.0 | 0.00 | 0.00 | 0.00 | 63 | 1015.0 |
| 20260504015119 | 48 | 333 | 0.0 | 0.0 | 0.00 | 0.00 | 0.00 | 64 | 1015.0 |
| 20260504014615 | 48 | 333 | 0.0 | 0.0 | 0.00 | 0.00 | 0.00 | 64 | 1015.0 |
| 20260504014113 | 48 | 333 | 0.0 | 0.0 | 0.00 | 0.00 | 0.00 | 65 | 1014.8 |
| 20260504013610 | 49 | 333 | 0.0 | 0.0 | 0.00 | 0.00 | 0.00 | 62 | 1015.0 |
| 20260504013107 | 49 | 333 | 0.0 | 0.0 | 0.00 | 0.00 | 0.00 | 62 | 1014.8 |
| 20260504012604 | 50 | 333 | 0.0 | 0.0 | 0.00 | 0.00 | 0.00 | 61 | 1014.6 |
| 20260504012102 | 50 | 333 | 0.9 | 1.7 | 0.00 | 0.00 | 0.00 | 62 | 1014.6 |
| 20260504011559 | 50 | 333 | 0.0 | 0.0 | 0.00 | 0.00 | 0.00 | 62 | 1014.8 |
| 20260504011055 | 50 | 333 | 0.0 | 0.0 | 0.00 | 0.00 | 0.00 | 61 | 1014.8 |
| 20260504010550 | 51 | 333 | 0.0 | 0.0 | 0.00 | 0.00 | 0.00 | 60 | 1014.7 |
| 20260504010047 | 51 | 333 | 0.0 | 0.0 | 0.00 | 0.00 | 0.00 | 60 | 1014.5 |
| 20260504005543 | 51 | 333 | 0.0 | 0.0 | 0.00 | 0.00 | 0.00 | 59 | 1014.5 |
| 20260504005041 | 51 | 333 | 0.0 | 0.0 | 0.00 | 0.00 | 0.00 | 58 | 1014.7 |
| 20260504004539 | 52 | 333 | 0.0 | 0.0 | 0.00 | 0.00 | 0.00 | 58 | 1014.6 |
| 20260504004035 | 52 | 333 | 0.0 | 1.7 | 0.00 | 0.00 | 0.00 | 57 | 1014.6 |
| 20260504003532 | 52 | 333 | 0.0 | 0.0 | 0.00 | 0.00 | 0.00 | 56 | 1014.4 |
| 20260504003029 | 52 | 332 | 0.0 | 0.0 | 0.00 | 0.00 | 0.00 | 55 | 1014.5 |
| 20260504002525 | 52 | 332 | 0.0 | 0.0 | 0.00 | 0.00 | 0.00 | 58 | 1014.6 |
| 20260504002023 | 52 | 333 | 0.0 | 0.0 | 0.00 | 0.00 | 0.00 | 55 | 1014.6 |
| 20260504001520 | 52 | 333 | 0.0 | 0.0 | 0.00 | 0.00 | 0.00 | 55 | 1014.6 |
| 20260504001011 | 53 | 333 | 0.0 | 0.0 | 0.00 | 0.00 | 0.00 | 55 | 1014.6 |
| 20260504000509 | 53 | 333 | 0.9 | 1.7 | 0.00 | 0.00 | 0.00 | 55 | 1014.6 |
| 20260504000006 | 53 | 333 | 0.0 | 0.0 | 0.00 | 0.00 | 0.00 | 53 | 1014.7 |
| 20260503235504 | 53 | 333 | 0.0 | 1.7 | 0.00 | 0.00 | 0.00 | 54 | 1014.6 |
| 20260503235001 | 53 | 329 | 0.9 | 1.7 | 0.00 | 0.00 | 0.00 | 52 | 1014.3 |
| 20260503234458 | 53 | 322 | 0.0 | 1.7 | 0.00 | 0.00 | 0.00 | 55 | 1014.5 |
| 20260503233956 | 53 | 303 | 0.9 | 1.7 | 0.00 | 0.00 | 0.00 | 55 | 1014.6 |
| 20260503233452 | 54 | 303 | 0.9 | 2.6 | 0.00 | 0.00 | 0.00 | 50 | 1014.5 |
| 20260503232949 | 54 | 286 | 0.9 | 1.7 | 0.00 | 0.00 | 0.00 | 50 | 1014.4 |
| 20260503232446 | 54 | 260 | 0.9 | 2.6 | 0.00 | 0.00 | 0.00 | 52 | 1014.3 |
| 20260503231944 | 54 | 318 | 0.9 | 1.7 | 0.00 | 0.00 | 0.00 | 53 | 1014.5 |
| 20260503231441 | 54 | 314 | 0.9 | 1.7 | 0.00 | 0.00 | 0.00 | 56 | 1014.5 |
| 20260503230937 | 54 | 314 | 0.9 | 1.7 | 0.00 | 0.00 | 0.00 | 53 | 1014.6 |
| 20260503230434 | 55 | 301 | 1.7 | 1.7 | 0.00 | 0.00 | 0.00 | 53 | 1014.4 |
| 20260503225932 | 56 | 329 | 1.7 | 2.6 | 0.00 | 0.00 | 0.00 | 47 | 1014.4 |
| 20260503225428 | 56 | 325 | 0.9 | 2.6 | 0.00 | 0.00 | 0.00 | 48 | 1014.6 |
| 20260503224924 | 56 | 342 | 0.9 | 1.7 | 0.00 | 0.00 | 0.00 | 52 | 1014.6 |
| 20260503224421 | 56 | 318 | 2.6 | 5.2 | 0.00 | 0.00 | 0.00 | 49 | 1014.4 |
| 20260503223919 | 56 | 314 | 3.5 | 4.3 | 0.00 | 0.00 | 0.00 | 51 | 1014.4 |
| 20260503223416 | 57 | 265 | 4.3 | 5.2 | 0.00 | 0.00 | 0.00 | 48 | 1014.5 |
| 20260503222911 | 56 | 309 | 3.5 | 5.2 | 0.00 | 0.00 | 0.00 | 51 | 1014.6 |
| 20260503222409 | 56 | 297 | 2.6 | 5.2 | 0.00 | 0.00 | 0.00 | 52 | 1014.7 |
| 20260503221907 | 56 | 326 | 2.6 | 4.3 | 0.00 | 0.00 | 0.00 | 45 | 1014.6 |
| 20260503221406 | 56 | 331 | 1.7 | 2.6 | 0.00 | 0.00 | 0.00 | 53 | 1014.6 |
| 20260503220902 | 56 | 304 | 2.6 | 2.6 | 0.00 | 0.00 | 0.00 | 52 | 1014.7 |
| 20260503220358 | 56 | 271 | 2.6 | 4.3 | 0.00 | 0.00 | 0.00 | 50 | 1014.6 |
| 20260503215855 | 57 | 319 | 3.5 | 4.3 | 0.00 | 0.00 | 0.00 | 46 | 1014.5 |
| 20260503215352 | 57 | 314 | 1.7 | 1.7 | 0.00 | 0.00 | 0.00 | 44 | 1014.5 |
| 20260503214850 | 57 | 292 | 3.5 | 5.2 | 0.00 | 0.00 | 0.00 | 49 | 1014.5 |
| 20260503214347 | 56 | 243 | 6.1 | 7.8 | 0.00 | 0.00 | 0.00 | 48 | 1014.6 |
| 20260503213844 | 56 | 6 | 1.7 | 2.6 | 0.00 | 0.00 | 0.00 | 45 | 1014.4 |
| 20260503213342 | 57 | 313 | 2.6 | 4.3 | 0.00 | 0.00 | 0.00 | 49 | 1014.4 |
| 20260503212839 | 57 | 317 | 0.0 | 0.0 | 0.00 | 0.00 | 0.00 | 46 | 1014.5 |
| 20260503212337 | 58 | 311 | 1.7 | 2.6 | 0.00 | 0.00 | 0.00 | 48 | 1014.3 |
| 20260503211834 | 57 | 337 | 2.6 | 4.3 | 0.00 | 0.00 | 0.00 | 44 | 1014.1 |
| 20260503211330 | 57 | 321 | 1.7 | 2.6 | 0.00 | 0.00 | 0.00 | 43 | 1014.4 |
| 20260503210825 | 57 | 313 | 1.7 | 2.6 | 0.00 | 0.00 | 0.00 | 43 | 1014.5 |
| 20260503210323 | 57 | 338 | 0.9 | 1.7 | 0.00 | 0.00 | 0.00 | 47 | 1014.6 |
| 20260503205818 | 58 | 304 | 2.6 | 4.3 | 0.00 | 0.00 | 0.00 | 43 | 1014.6 |
| 20260503205315 | 57 | 323 | 2.6 | 2.6 | 0.00 | 0.00 | 0.00 | 43 | 1014.6 |
| 20260503204811 | 58 | 263 | 2.6 | 4.3 | 0.00 | 0.00 | 0.00 | 43 | 1014.6 |
| 20260503204309 | 59 | 305 | 0.0 | 1.7 | 0.00 | 0.00 | 0.00 | 45 | 1014.5 |
| 20260503203805 | 59 | 318 | 1.7 | 2.6 | 0.00 | 0.00 | 0.00 | 45 | 1014.7 |
| 20260503203302 | 59 | 290 | 2.6 | 4.3 | 0.00 | 0.00 | 0.00 | 43 | 1014.7 |
| 20260503202754 | 57 | 305 | 4.3 | 7.0 | 0.00 | 0.00 | 0.00 | 43 | 1014.8 |
| 20260503202252 | 58 | 308 | 3.5 | 4.3 | 0.00 | 0.00 | 0.00 | 47 | 1014.9 |
| 20260503201750 | 56 | 336 | 1.7 | 2.6 | 0.00 | 0.00 | 0.00 | 50 | 1014.9 |
| 20260503201247 | 57 | 334 | 2.6 | 2.6 | 0.00 | 0.00 | 0.00 | 47 | 1015.0 |
| 20260503200744 | 58 | 351 | 0.0 | 1.7 | 0.00 | 0.00 | 0.00 | 42 | 1015.0 |
| 20260503200240 | 58 | 314 | 1.7 | 2.6 | 0.00 | 0.00 | 0.00 | 44 | 1015.1 |
| 20260503195737 | 57 | 313 | 0.9 | 2.6 | 0.00 | 0.00 | 0.00 | 43 | 1015.2 |
| 20260503195234 | 58 | 317 | 2.6 | 4.3 | 0.00 | 0.00 | 0.00 | 45 | 1015.5 |
| 20260503194732 | 59 | 304 | 2.6 | 4.3 | 0.00 | 0.00 | 0.00 | 48 | 1015.4 |
| 20260503194227 | 57 | 327 | 1.7 | 2.6 | 0.00 | 0.00 | 0.00 | 47 | 1015.5 |
| 20260503193723 | 57 | 313 | 3.5 | 4.3 | 0.00 | 0.00 | 0.00 | 43 | 1015.5 |
| 20260503193220 | 58 | 208 | 2.6 | 4.3 | 0.00 | 0.00 | 0.00 | 48 | 1015.5 |
| 20260503192715 | 58 | 325 | 1.7 | 2.6 | 0.00 | 0.00 | 0.00 | 49 | 1015.7 |
| 20260503192211 | 58 | 314 | 0.9 | 2.6 | 0.00 | 0.00 | 0.00 | 43 | 1015.8 |
| 20260503191708 | 57 | 328 | 1.7 | 2.6 | 0.00 | 0.00 | 0.00 | 43 | 1016.0 |
| 20260503191205 | 59 | 302 | 1.7 | 2.6 | 0.00 | 0.00 | 0.00 | 44 | 1015.8 |
| 20260503190702 | 59 | 357 | 5.2 | 7.0 | 0.00 | 0.00 | 0.00 | 48 | 1015.9 |
| 20260503190158 | 58 | 345 | 0.9 | 1.7 | 0.00 | 0.00 | 0.00 | 50 | 1016.1 |
| 20260503185655 | 56 | 325 | 1.7 | 2.6 | 0.00 | 0.00 | 0.00 | 45 | 1016.1 |
| 20260503185150 | 56 | 339 | 2.6 | 4.3 | 0.00 | 0.00 | 0.00 | 50 | 1016.0 |
| 20260503184646 | 56 | 345 | 1.7 | 1.7 | 0.00 | 0.00 | 0.00 | 47 | 1016.3 |
| 20260503184142 | 57 | 324 | 2.6 | 4.3 | 0.00 | 0.00 | 0.00 | 49 | 1016.2 |
| 20260503183638 | 57 | 327 | 1.7 | 2.6 | 0.00 | 0.00 | 0.00 | 50 | 1016.5 |
| 20260503183136 | 56 | 317 | 1.7 | 2.6 | 0.00 | 0.00 | 0.00 | 46 | 1016.2 |
| 20260503182634 | 57 | 196 | 6.1 | 9.6 | 0.00 | 0.00 | 0.00 | 52 | 1016.2 |
| 20260503182132 | 56 | 335 | 2.6 | 2.6 | 0.00 | 0.00 | 0.00 | 50 | 1016.5 |
| 20260503181629 | 57 | 146 | 0.9 | 2.6 | 0.00 | 0.00 | 0.00 | 46 | 1016.5 |
| 20260503181126 | 55 | 325 | 1.7 | 2.6 | 0.00 | 0.00 | 0.00 | 47 | 1016.4 |
| 20260503180623 | 56 | 211 | 2.6 | 4.3 | 0.00 | 0.00 | 0.00 | 51 | 1016.8 |
| 20260503180121 | 58 | 298 | 2.6 | 2.6 | 0.00 | 0.00 | 0.00 | 47 | 1016.5 |
| 20260503175617 | 57 | 340 | 1.7 | 2.6 | 0.00 | 0.00 | 0.00 | 51 | 1016.6 |
| 20260503175114 | 57 | 305 | 3.5 | 4.3 | 0.00 | 0.00 | 0.00 | 49 | 1016.8 |
| 20260503174611 | 55 | 332 | 1.7 | 2.6 | 0.00 | 0.00 | 0.00 | 58 | 1016.9 |
| 20260503174108 | 57 | 342 | 3.5 | 4.3 | 0.00 | 0.00 | 0.00 | 45 | 1016.8 |
| 20260503173603 | 57 | 292 | 2.6 | 4.3 | 0.00 | 0.00 | 0.00 | 53 | 1016.9 |
| 20260503173100 | 56 | 332 | 0.9 | 2.6 | 0.00 | 0.00 | 0.00 | 53 | 1017.0 |
| 20260503172557 | 54 | 298 | 0.9 | 1.7 | 0.00 | 0.00 | 0.00 | 48 | 1017.2 |
| 20260503172054 | 56 | 328 | 1.7 | 2.6 | 0.00 | 0.00 | 0.00 | 46 | 1016.8 |
| 20260503171550 | 56 | 335 | 1.7 | 2.6 | 0.00 | 0.00 | 0.00 | 47 | 1017.0 |
| 20260503171048 | 55 | 339 | 0.9 | 2.6 | 0.00 | 0.00 | 0.00 | 49 | 1017.2 |
| 20260503170544 | 55 | 319 | 3.5 | 4.3 | 0.00 | 0.00 | 0.00 | 53 | 1017.0 |